sat.trackr.live / text

‹ back to catalog

CBERS 4

NORAD 40336 · 2014-079A

PAYLOAD ACTIVE UNKNOWN

§ Identity

Operator
Country
CHBZ
Launch date
2014-12-07
Launch site
TAISC
Launch vehicle
Mass (kg)
RCS (m²)
3.78

Purposes: earth_obs

External: N2YO · Heavens-Above · Gunter

§ Orbital elements

Epoch: 2026-05-25T04:11:53.152800Z

Period
100.31 min
Inclination
98.3542°
Eccentricity
0.0002088
Mean motion
14.35501224 rev/d
Perigee alt
771.9 km
Apogee alt
774.9 km
Semi-major
7,151.5 km
B*
-1.1244e-6
RAAN
202.7268°
Arg perigee
91.1380°
Mean anomaly
269.0045°
Rev number
60,065

§ Raw data

CBERS 41 40336U 14079A   26145.17492075 -.00000045  00000+0 -11244-5 0  99972 40336  98.3542 202.7268 0002088  91.1380 269.0045 14.35501224600656

JSON: /api/v1/satellites/40336 · /tle

For live sub-satellite position, see the globe view (requires WebGL).

§ Visibility from observer

Set your observer location to see the next 7 days of passes ≥ 10°. The values pass through the URL so the page stays shareable.

No JS? Fill the form by hand. The geolocation button needs JavaScript.

§ Radio — SatNOGS DB

ModeDescriptionDownlinkUplink
FM S-band telemetry 2.217 GHz

1 transmitter · refreshed weekly from db.satnogs.org